Tracking 19246 objects as of 21-Sep-2018
HD Live streaming from Space Station
objects crossing your sky now

FENGYUN 1C DEB

Track FENGYUN 1C DEB now!
10-day predictions


NORAD ID: 31187
Int'l Code: 1999-025BJR
Perigee: 594.5 km
Apogee: 1,169.2 km
Inclination: 99.2 °
Period: 102.5 minutes
Semi major axis: 7252 km
RCS: 0.0178 m2 (small)
Launch date: May 10, 1999
Source: People's Republic of China (PRC)
Launch site: Taiyaun Space Center, China (TSC)

Note: This is SATELLITE DEBRIS
aabbcc
Your satellite tracking list
Your tracking list is empty




NASA's NSSDC Master Catalog

Two Line Element Set (TLE):
1 31187U 99025BJR 18262.03948570  .00000347  00000-0  12114-3 0  9996
2 31187  99.1981 340.5391 0396152 152.6780 209.5845 14.05533306584784
Source of the keplerian elements: AFSPC